Weather History for Swansboro, NC

Change the Weather History Date:

Wednesday, November 7, 2012

  Actual Average (KNKT) Record (KNKT)
Temperature  
Mean Temperature 45 °F -  
Max Temperature 51 °F 65 °F 77 °F (2005)
Min Temperature 39 °F 44 °F 32 °F (2001)
Degree Days  
Heating Degree Days 20    
Moisture  
Dew Point 40 °F    
Average Humidity 84    
Maximum Humidity 96    
Minimum Humidity 66    
Precipitation  
Precipitation 0.02 in - - ()
Sea Level Pressure  
Sea Level Pressure 29.85 in    
Wind  
Wind Speed 9 mph (NNW)    
Max Wind Speed 12 mph    
Max Gust Speed 20 mph    
Visibility 9 miles    
Events Rain    
Averages and records for this station are not official NWS values.
T = Trace of Precipitation, MM = Missing Value Source: NWS Daily Summary

Daily Weather History Graph

Daily Weather History Graph

Search for Another Location

Airport:

Trip Planner

Search our weather history database for the weather conditions in past years. The results will help you decide how hot, cold, wet, or windy it might be!

Date:

Astronomy

Nov. 07, 2012 Rise Set
Actual Time 6:34 AM EST 5:08 PM EST
Civil Twilight 6:08 AM EST 5:34 PM EST
Nautical Twilight 5:38 AM EST 6:04 PM EST
Astronomical Twilight 5:08 AM EST 6:34 PM EST
Moon No Moon Rise 1:01 PM EST (11/7)
Length of Visible Light 11h 26m
Length of Day
10h 33m
Last Quarter, 43% of the Moon is Illuminated
Nov 7
Last Quarter
Nov 13
New
Nov 20
First Quarter
Nov 28
Full
Dec 6
Last Quarter

Hourly Weather History & Observations

Time (EST) Temp. Windchill Dew Point Humidity Pressure Visibility Wind Dir Wind Speed Gust Speed Precip Events Conditions
12:57 AM 41.0 °F 34.7 °F 39.0 °F 93% 29.84 in 7.0 mi NNW 10.4 mph 19.6 mph 0.00 in   Overcast
2:57 AM 41.0 °F 35.2 °F 39.0 °F 93% 29.82 in 7.0 mi NNW 9.2 mph - 0.00 in   Overcast
3:57 AM 41.0 °F 34.7 °F 39.0 °F 93% 29.82 in 7.0 mi NNW 10.4 mph 17.3 mph 0.01 in   Overcast
4:44 AM 41.0 °F 34.7 °F 39.2 °F 93% 29.81 in 7.0 mi NNW 10.4 mph - 0.01 in Rain Light Rain
4:57 AM 41.0 °F 34.7 °F 39.9 °F 96% 29.83 in 6.0 mi NNW 10.4 mph - 0.01 in   Overcast
6:57 AM 42.1 °F 36.1 °F 39.9 °F 92% 29.84 in 7.0 mi NNW 10.4 mph 17.3 mph N/A   Overcast
7:57 AM 43.0 °F 37.2 °F 41.0 °F 93% 29.85 in 10.0 mi North 10.4 mph 17.3 mph N/A   Overcast
8:57 AM 44.1 °F 39.5 °F 41.0 °F 89% 29.86 in 10.0 mi NNW 8.1 mph - N/A   Overcast
9:57 AM 46.0 °F 41.9 °F 43.0 °F 89% 29.86 in 10.0 mi North 8.1 mph - N/A   Overcast
10:57 AM 48.9 °F - 42.1 °F 77% 29.84 in 10.0 mi NNW 8.1 mph 18.4 mph N/A   Overcast
11:04 AM 48.2 °F - 42.8 °F 82% 29.83 in 10.0 mi NNW 9.2 mph 17.3 mph N/A   Overcast
11:57 AM 50.0 °F - 42.1 °F 74% 29.83 in 10.0 mi North 8.1 mph - N/A   Overcast
12:57 PM 50.0 °F - 42.1 °F 74% 29.81 in 10.0 mi NNW 8.1 mph 18.4 mph N/A   Overcast
1:30 PM 51.8 °F - 41.0 °F 67% 29.79 in 10.0 mi NNW 10.4 mph 18.4 mph N/A   Overcast
1:57 PM 50.0 °F - 39.9 °F 68% 29.81 in 10.0 mi NNW 9.2 mph 19.6 mph N/A   Mostly Cloudy
2:41 PM 50.0 °F - 39.2 °F 66% 29.80 in 10.0 mi NNW 11.5 mph 17.3 mph N/A   Overcast
2:57 PM 48.9 °F - 39.9 °F 71% 29.82 in 10.0 mi NNW 11.5 mph 17.3 mph N/A   Overcast
3:57 PM 48.0 °F - 39.9 °F 74% 29.84 in 10.0 mi North 9.2 mph - N/A   Overcast
4:57 PM 45.0 °F 40.6 °F 39.0 °F 80% 29.85 in 10.0 mi NNW 8.1 mph 19.6 mph 0.00 in Rain Light Rain
6:57 PM 42.1 °F 36.6 °F 39.9 °F 92% 29.88 in 10.0 mi NW 9.2 mph - 0.00 in   Overcast
7:57 PM 42.1 °F 38.4 °F 39.0 °F 89% 29.90 in 10.0 mi NNW 5.8 mph - N/A   Overcast
9:57 PM 39.9 °F 35.8 °F 37.0 °F 89% 29.92 in 10.0 mi NNW 5.8 mph - N/A   Clear
10:57 PM 39.0 °F 35.7 °F 36.0 °F 89% 29.92 in 10.0 mi NNW 4.6 mph - N/A   Scattered Clouds
11:57 PM 39.0 °F 36.8 °F 36.0 °F 89% 29.92 in 10.0 mi NW 3.5 mph - N/A   Mostly Cloudy